QPF
0.00 0.00 0.00 0.00 0.00 0.00 0.00 0.00 0.00 0.00 0.00 0.00 0.00 0.00 0.00 0.00 0.00 0.00 0.00 0.00 0.00 0.00 0.00 0.00 0.00 0.00 0.00 0.00 0.00 0.00 0.00 0.00 0.00 0.00 0.00 0.00 0.00 0.00 0.00 0.00 0.00 0.00 0.00
0.00 0.00 0.00 0.00 0.00 0.00 0.00 0.00 0.00 0.00 0.00 0.00 0.00 0.00 0.00 0.00 0.00 0.00 0.00 0.00 0.00 0.00 0.00 0.00 0.00 0.00 0.00 0.00 0.00 0.00 0.00 0.00 0.00 0.00 0.00 0.00 0.00 0.00 0.00 0.00 0.00 0.00 0.00
0.00 0.00 0.00 0.00 0.00 0.00 0.00 0.00 0.00 0.00 0.00 0.00 0.00 0.00 0.00 0.00 0.00 0.00 0.00 0.00 0.00 0.00 0.00 0.00 0.00 0.00 0.00 0.00 0.00 0.00 0.00 0.00 0.00 0.00 0.00 0.01 0.00 0.00 0.00 0.00 0.00 0.00 0.00
0.00 0.00 0.00 0.00 0.00 0.00 0.00 0.00 0.00 0.00 0.00 0.00 0.00 0.00 0.00 0.00 0.00 0.00 0.00 0.00 0.00 0.00 0.00 0.00 0.00 0.00 0.00 0.00 0.00 0.00 0.00 0.00 0.00 0.00 0.00 0.00 0.00 0.00 0.00 0.00 0.00 0.00 0.00
0.00 0.00 0.00 0.00 0.00 0.00 0.00 0.00 0.00 0.00 0.00 0.00 0.00 0.00 0.00 0.00 0.00 0.00 0.00 0.00 0.00 0.00 0.00 0.00 0.00 0.00 0.00 0.00 0.00 0.00 0.00 0.00 0.00 0.00 0.00 0.00 0.00 0.00 0.00 0.00 0.00 0.00 0.00
0.00 0.00 0.00 0.00 0.00 0.00 0.00 0.00 0.00 0.00 0.00 0.00 0.00 0.00 0.00 0.00 0.00 0.00 0.00 0.00 0.00 0.00 0.00 0.00 0.00 0.00 0.00 0.00 0.00 0.00 0.00 0.00 0.00 0.00 0.00 0.00 0.00 0.01 0.00 0.00 0.00 0.00 0.00
0.00 0.00 0.00 0.00 0.00 0.00 0.00 0.00 0.00 0.00 0.00 0.00 0.00 0.00 0.00 0.00 0.00 0.00 0.00 0.00 0.00 0.00 0.00 0.00 0.00 0.00 0.00 0.00 0.00 0.00 0.00 0.00 0.00 0.00 0.00 0.00 0.00 0.00 0.00 0.00 0.00 0.00 0.01
0.00 0.00 0.00 0.00 0.00 0.00 0.00 0.00 0.00 0.00 0.00 0.00 0.00 0.00 0.00 0.00 0.00 0.00 0.00 0.00 0.00 0.00 0.00 0.00 0.00 0.00 0.00 0.00 0.00 0.00 0.00 0.00 0.00 0.00 0.00 0.00 0.00 0.00 0.00 0.00 0.00 0.00 0.00
0.00 0.00 0.00 0.00 0.00 0.00 0.00 0.00 0.00 0.00 0.00 0.00 0.00 0.00 0.00 0.00 0.00 0.00 0.00 0.00 0.00 0.00 0.00 0.00 0.00 0.00 0.00 0.00 0.00 0.00 0.00 0.00 0.00 0.00 0.00 0.00 0.00 0.00 0.01 0.01 0.00 0.02 0.01
0.00 0.00 0.00 0.00 0.00 0.00 0.00 0.00 0.00 0.00 0.00 0.00 0.00 0.00 0.00 0.00 0.00 0.00 0.00 0.00 0.00 0.00 0.00 0.00 0.00 0.00 0.00 0.00 0.00 0.00 0.00 0.00 0.00 0.00 0.00 0.00 0.00 0.00 0.00 0.01 0.00 0.02 0.02
0.00 0.00 0.00 0.00 0.00 0.00 0.00 0.00 0.00 0.00 0.00 0.00 0.00 0.00 0.00 0.00 0.00 0.00 0.00 0.00 0.00 0.00 0.00 0.00 0.00 0.00 0.00 0.00 0.00 0.00 0.00 0.00 0.00 0.00 0.00 0.00 0.00 0.00 0.00 0.00 0.00 0.00 0.01
0.00 0.00 0.00 0.00 0.00 0.00 0.00 0.00 0.00 0.00 0.00 0.00 0.00 0.00 0.00 0.00 0.00 0.00 0.00 0.00 0.00 0.00 0.00 0.00 0.01 0.00 0.00 0.00 0.00 0.00 0.00 0.00 0.00 0.00 0.00 0.00 0.00 0.00 0.00 0.00 0.02 0.00 0.00
0.00 0.00 0.00 0.00 0.00 0.00 0.00 0.00 0.00 0.00 0.00 0.00 0.00 0.00 0.00 0.00 0.00 0.00 0.00 0.00 0.00 0.00 0.00 0.00 0.03 0.06 0.04 0.00 0.00 0.00 0.00 0.00 0.00 0.00 0.00 0.00 0.00 0.00 0.00 0.00 0.01 0.01 0.00
0.00 0.00 0.00 0.00 0.00 0.00 0.00 0.00 0.00 0.00 0.00 0.00 0.00 0.00 0.01 0.02 0.02 0.02 0.01 0.00 0.01 0.01 0.01 0.04 0.05 0.05 0.05 0.04 0.01 0.00 0.00 0.00 0.00 0.00 0.00 0.00 0.00 0.00 0.00 0.01 0.02 0.05 0.05
0.00 0.00 0.00 0.00 0.00 0.00 0.00 0.01 0.01 0.00 0.00 0.00 0.00 0.00 0.01 0.01 0.03 0.03 0.02 0.02 0.02 0.03 0.02 0.02 0.05 0.09 0.07 0.06 0.04 0.02 0.00 0.00 0.00 0.00 0.00 0.00 0.00 0.00 0.00 0.00 0.05 0.05 0.06
0.00 0.00 0.00 0.00 0.00 0.00 0.01 0.02 0.02 0.03 0.01 0.00 0.01 0.01 0.01 0.01 0.01 0.01 0.04 0.02 0.02 0.05 0.08 0.06 0.03 0.05 0.07 0.04 0.02 0.02 0.03 0.01 0.01 0.00 0.00 0.00 0.00 0.00 0.00 0.00 0.01 0.01 0.04
0.00 0.00 0.00 0.00 0.00 0.00 0.00 0.00 0.01 0.00 0.01 0.02 0.04 0.05 0.04 0.02 0.03 0.02 0.01 0.02 0.02 0.04 0.04 0.04 0.05 0.07 0.06 0.06 0.03 0.01 0.01 0.02 0.04 0.01 0.00 0.00 0.00 0.00 0.00 0.00 0.00 0.00 0.01
0.00 0.00 0.00 0.00 0.00 0.00 0.00 0.00 0.00 0.00 0.00 0.01 0.02 0.02 0.01 0.01 0.01 0.02 0.02 0.03 0.05 0.08 0.08 0.10 0.06 0.05 0.05 0.04 0.04 0.04 0.02 0.01 0.01 0.02 0.02 0.02 0.01 0.00 0.00 0.00 0.00 0.00 0.00
0.00 0.00 0.00 0.00 0.00 0.00 0.00 0.00 0.00 0.00 0.00 0.00 0.00 0.00 0.00 0.00 0.01 0.01 0.01 0.01 0.02 0.04 0.03 0.02 0.08 0.11 0.07 0.03 0.03 0.04 0.01 0.00 0.01 0.02 0.01 0.02 0.01 0.00 0.00 0.00 0.00 0.00 0.00
0.00 0.00 0.00 0.00 0.00 0.00 0.00 0.00 0.00 0.00 0.00 0.00 0.00 0.00 0.00 0.00 0.00 0.00 0.00 0.00 0.00 0.00 0.00 0.02 0.01 0.05 0.08 0.15 0.26 0.26 0.27 0.21 0.16 0.14 0.08 0.02 0.01 0.00 0.00 0.00 0.00 0.00 0.00
0.00 0.00 0.00 0.00 0.00 0.00 0.00 0.00 0.00 0.00 0.00 0.00 0.00 0.00 0.00 0.00 0.00 0.00 0.00 0.00 0.00 0.00 0.00 0.00 0.00 0.01 0.02 0.05 0.20 0.22 0.30 0.42 0.61 0.85 0.73 0.20 0.02 0.00 0.00 0.00 0.00 0.00 0.00
0.00 0.00 0.00 0.00 0.00 0.00 0.00 0.00 0.00 0.00 0.00 0.00 0.00 0.00 0.00 0.00 0.00 0.00 0.00 0.00 0.00 0.00 0.00 0.00 0.00 0.00 0.00 0.02 0.06 0.13 0.28 0.28 0.16 0.04 0.05 0.04 0.02 0.00 0.00 0.00 0.00 0.00 0.00
0.00 0.00 0.00 0.00 0.00 0.00 0.00 0.00 0.00 0.00 0.00 0.00 0.00 0.00 0.00 0.00 0.00 0.00 0.00 0.00 0.00 0.00 0.00 0.00 0.00 0.00 0.00 0.01 0.03 0.02 0.01 0.01 0.00 0.00 0.00 0.00 0.00 0.00 0.00 0.00 0.00 0.00 0.00
0.00 0.00 0.00 0.00 0.00 0.00 0.00 0.00 0.00 0.00 0.00 0.00 0.00 0.00 0.00 0.00 0.00 0.00 0.00 0.00 0.00 0.00 0.00 0.00 0.00 0.00 0.00 0.00 0.00 0.03 0.03 0.02 0.02 0.01 0.00 0.00 0.00 0.00 0.00 0.00 0.00 0.00 0.00
0.00 0.00 0.00 0.00 0.00 0.00 0.00 0.00 0.00 0.00 0.00 0.00 0.00 0.00 0.00 0.00 0.00 0.00 0.00 0.00 0.00 0.00 0.00 0.00 0.00 0.00 0.01 0.00 0.00 0.01 0.03 0.04 0.04 0.04 0.02 0.01 0.00 0.00 0.00 0.00 0.00 0.00 0.00
0.00 0.00 0.00 0.00 0.00 0.00 0.00 0.00 0.00 0.00 0.02 0.01 0.00 0.00 0.00 0.00 0.00 0.00 0.00 0.00 0.00 0.00 0.00 0.00 0.00 0.00 0.00 0.00 0.00 0.00 0.00 0.01 0.02 0.03 0.02 0.01 0.00 0.00 0.00 0.00 0.00 0.00 0.00
MSLP
1008.32 1009.61 1010.48 1010.36 1010.71 1011.14 1011.32 1011.60 1011.95 1012.31 1012.61 1012.85 1012.98 1013.01 1012.94 1012.88 1013.08 1013.38 1013.69 1013.89 1014.09 1014.28 1014.49 1014.75 1014.89 1014.98 1015.03 1015.17 1015.40 1015.56 1015.64 1015.71 1015.87 1015.80 1015.88 1016.05 1016.21 1016.46 1016.59 1016.63 1016.49 1016.34 1017.04
1008.52 1009.39 1010.57 1010.44 1010.60 1011.08 1011.48 1011.70 1012.02 1012.45 1012.74 1012.93 1013.09 1013.19 1013.16 1013.17 1013.33 1013.46 1013.71 1013.93 1014.15 1014.31 1014.47 1014.71 1014.87 1014.97 1015.10 1015.28 1015.49 1015.67 1015.71 1015.79 1015.94 1016.01 1016.09 1016.26 1016.45 1016.70 1016.84 1016.74 1016.54 1016.84 1017.42
1009.06 1009.74 1010.80 1010.97 1011.00 1011.08 1011.40 1011.80 1012.14 1012.39 1012.74 1013.04 1013.19 1013.12 1013.26 1013.38 1013.50 1013.69 1013.87 1014.06 1014.24 1014.39 1014.54 1014.67 1014.83 1015.00 1015.20 1015.40 1015.58 1015.75 1015.85 1015.97 1016.07 1016.14 1016.08 1015.12 1015.68 1016.86 1017.07 1017.08 1016.97 1017.30 1017.51
1009.24 1009.76 1010.23 1011.43 1011.47 1011.49 1011.52 1011.79 1012.07 1012.28 1012.52 1012.91 1013.23 1013.35 1013.36 1013.55 1013.73 1013.83 1013.99 1014.25 1014.47 1014.56 1014.67 1014.80 1014.94 1015.12 1015.32 1015.49 1015.68 1015.85 1016.01 1016.13 1016.31 1016.31 1015.45 1014.70 1015.49 1016.95 1017.18 1017.30 1017.36 1017.50 1017.67
1009.74 1009.91 1010.49 1011.46 1011.77 1011.79 1011.78 1011.95 1012.18 1012.35 1012.53 1012.70 1013.03 1013.37 1013.59 1013.77 1013.93 1014.03 1014.17 1014.39 1014.62 1014.74 1014.85 1014.96 1015.06 1015.20 1015.39 1015.56 1015.81 1016.08 1016.19 1016.32 1016.40 1016.23 1015.02 1015.20 1015.21 1016.71 1017.11 1017.27 1017.45 1017.62 1017.81
1010.04 1010.12 1011.24 1011.66 1011.85 1011.96 1011.96 1012.05 1012.18 1012.35 1012.59 1012.78 1013.03 1013.30 1013.66 1013.89 1014.09 1014.25 1014.47 1014.54 1014.67 1014.87 1015.01 1015.13 1015.25 1015.41 1015.55 1015.80 1016.02 1016.20 1016.32 1016.42 1016.42 1015.20 1015.21 1015.70 1015.43 1016.74 1017.11 1017.21 1017.21 1017.42 1017.77
1010.18 1010.28 1010.74 1011.64 1011.98 1012.08 1012.08 1012.07 1012.10 1012.25 1012.51 1012.78 1012.99 1013.19 1013.49 1013.80 1014.10 1014.29 1014.49 1014.68 1014.80 1014.90 1015.06 1015.20 1015.30 1015.55 1015.80 1016.00 1016.13 1016.23 1016.33 1016.36 1015.67 1015.02 1015.33 1015.67 1015.72 1016.77 1017.10 1017.25 1017.39 1017.56 1017.77
1010.53 1010.64 1010.86 1011.61 1012.02 1012.44 1012.49 1012.47 1012.54 1012.62 1012.77 1012.85 1012.92 1013.09 1013.27 1013.48 1013.76 1014.10 1014.37 1014.60 1014.71 1014.89 1014.98 1015.09 1015.20 1015.43 1015.77 1016.02 1016.15 1016.22 1016.34 1016.35 1015.76 1014.90 1015.19 1015.35 1016.13 1016.75 1016.97 1017.20 1017.40 1017.57 1017.76
1010.62 1010.96 1010.98 1011.02 1011.45 1012.25 1012.63 1012.88 1012.89 1012.93 1013.08 1013.23 1013.28 1013.36 1013.42 1013.40 1013.53 1013.80 1014.14 1014.44 1014.71 1014.86 1014.99 1015.12 1015.20 1015.36 1015.56 1015.84 1016.10 1016.23 1016.30 1016.29 1015.31 1014.80 1014.99 1015.13 1016.11 1016.61 1016.79 1017.11 1017.33 1017.55 1017.70
1010.75 1010.99 1011.25 1011.21 1011.24 1011.46 1011.63 1012.52 1012.97 1013.10 1013.10 1013.18 1013.40 1013.52 1013.66 1013.81 1013.82 1013.84 1013.97 1014.24 1014.44 1014.68 1014.91 1015.15 1015.33 1015.43 1015.51 1015.72 1015.95 1016.11 1016.30 1016.39 1015.71 1014.75 1014.95 1014.77 1015.91 1016.43 1016.59 1016.81 1017.08 1017.32 1017.58
1011.07 1011.06 1011.06 1011.17 1011.12 1011.26 1011.34 1011.51 1012.40 1012.72 1012.98 1013.12 1013.20 1013.40 1013.66 1013.39 1013.22 1013.44 1013.60 1013.81 1014.21 1014.47 1014.70 1014.94 1015.15 1015.39 1015.60 1015.65 1015.78 1016.05 1016.26 1015.38 1015.03 1014.72 1014.46 1015.20 1015.91 1016.29 1016.43 1016.64 1016.82 1017.05 1017.31
1011.16 1011.21 1011.08 1010.98 1010.92 1010.96 1011.05 1011.26 1011.52 1011.54 1011.70 1011.98 1012.10 1012.24 1012.79 1012.65 1012.73 1012.90 1013.07 1013.81 1014.16 1014.38 1014.55 1014.71 1014.91 1015.08 1015.41 1014.63 1014.74 1015.65 1015.33 1014.63 1014.50 1014.33 1014.24 1015.21 1015.94 1016.10 1016.18 1016.40 1016.62 1016.82 1016.99
1011.40 1011.16 1011.03 1011.07 1010.75 1010.85 1010.62 1010.73 1010.79 1010.90 1011.14 1011.48 1011.83 1012.03 1012.50 1012.71 1012.85 1013.00 1012.87 1013.11 1013.54 1013.98 1013.68 1014.13 1014.31 1014.57 1014.31 1013.86 1013.42 1013.67 1013.94 1014.05 1013.93 1013.95 1014.01 1014.97 1015.68 1015.92 1016.03 1016.07 1016.30 1016.55 1016.75
1012.00 1011.69 1011.79 1011.54 1010.99 1010.78 1010.45 1010.51 1010.46 1010.64 1011.05 1011.29 1011.56 1012.07 1012.21 1012.35 1012.24 1012.46 1012.84 1013.00 1012.58 1012.29 1012.57 1012.80 1013.14 1013.29 1013.36 1013.34 1013.25 1013.24 1013.52 1013.40 1013.22 1013.31 1013.49 1014.58 1015.33 1015.54 1015.70 1015.82 1015.86 1016.17 1016.36
1013.55 1013.42 1013.13 1012.84 1012.46 1011.80 1011.03 1010.71 1010.80 1010.81 1011.14 1011.32 1011.53 1011.69 1012.13 1012.28 1012.26 1012.31 1012.56 1012.76 1012.95 1012.87 1012.68 1012.63 1012.80 1012.86 1013.02 1013.10 1013.18 1013.16 1013.14 1013.20 1013.06 1012.86 1012.95 1013.91 1014.69 1015.00 1015.17 1015.31 1015.52 1015.66 1015.85
1014.71 1014.53 1014.60 1014.35 1013.86 1013.60 1012.85 1012.11 1011.66 1011.42 1011.48 1011.71 1011.87 1011.92 1012.02 1012.21 1012.22 1012.18 1012.27 1012.44 1012.39 1012.62 1012.70 1012.71 1012.80 1012.72 1013.03 1013.35 1013.11 1012.85 1012.83 1012.60 1012.72 1012.86 1012.70 1012.93 1014.00 1014.37 1014.60 1014.74 1014.93 1015.18 1015.26
1015.65 1015.64 1015.61 1015.21 1015.07 1014.47 1014.11 1013.64 1013.07 1012.79 1012.62 1012.66 1012.80 1013.08 1013.05 1012.82 1012.73 1012.36 1012.05 1011.99 1011.84 1011.82 1012.19 1012.30 1012.27 1012.50 1012.77 1012.91 1012.94 1012.92 1012.68 1012.52 1012.45 1012.31 1012.41 1012.29 1012.53 1013.62 1013.98 1014.19 1014.42 1014.62 1014.78
1016.79 1016.64 1016.58 1016.50 1016.01 1015.58 1015.05 1014.59 1014.11 1013.80 1013.53 1013.46 1013.48 1013.57 1013.65 1013.59 1013.41 1013.22 1012.95 1012.69 1012.56 1012.39 1012.41 1011.94 1011.74 1011.80 1012.05 1012.38 1012.40 1012.32 1012.22 1012.07 1011.82 1011.81 1012.12 1012.35 1011.86 1011.63 1012.82 1013.14 1013.51 1013.87 1014.02
1017.90 1017.86 1017.52 1017.22 1016.76 1016.31 1015.87 1015.26 1014.78 1014.50 1014.15 1014.00 1013.84 1013.96 1014.23 1014.01 1013.88 1013.50 1012.83 1012.78 1012.81 1012.71 1012.46 1012.25 1011.83 1011.53 1011.35 1011.40 1011.54 1011.56 1011.33 1011.00 1010.95 1011.22 1011.41 1011.78 1012.13 1012.11 1011.54 1011.65 1012.11 1012.91 1013.36
1018.48 1018.51 1018.57 1018.25 1017.70 1016.91 1016.32 1015.76 1015.17 1014.85 1014.74 1014.57 1014.60 1014.99 1014.89 1014.84 1014.59 1014.15 1013.13 1013.05 1013.04 1012.74 1012.06 1011.92 1011.90 1011.62 1011.19 1010.80 1010.71 1010.31 1009.86 1010.45 1010.72 1011.60 1011.94 1011.42 1011.68 1011.81 1011.79 1011.09 1010.78 1011.27 1012.39
1019.10 1018.94 1019.02 1018.87 1018.56 1017.91 1017.13 1016.62 1016.15 1015.87 1015.24 1015.11 1015.33 1015.67 1015.57 1015.42 1015.23 1014.84 1014.13 1013.65 1013.28 1012.98 1012.72 1012.30 1011.63 1011.05 1010.63 1010.50 1010.43 1009.84 1009.54 1009.22 1010.69 1010.86 1009.67 1010.11 1011.53 1011.19 1011.16 1011.18 1009.54 1010.19 1010.42
1019.66 1019.54 1019.52 1019.46 1019.24 1018.93 1018.51 1018.10 1017.36 1016.73 1016.15 1015.93 1015.98 1016.00 1016.15 1016.13 1015.89 1015.68 1015.72 1015.18 1014.87 1014.24 1013.87 1013.19 1012.25 1011.36 1010.61 1010.28 1009.98 1009.77 1009.07 1009.16 1009.06 1009.39 1009.26 1009.04 1009.91 1010.60 1010.59 1010.28 1009.00 1009.68 1009.51
1019.89 1019.66 1019.39 1019.60 1019.77 1019.77 1019.35 1018.66 1017.99 1017.01 1016.68 1016.48 1016.37 1016.42 1016.71 1016.69 1016.62 1016.75 1016.44 1016.01 1015.62 1015.00 1014.47 1014.22 1013.63 1012.92 1011.36 1010.12 1009.92 1009.30 1008.81 1008.18 1008.02 1008.00 1008.10 1008.57 1009.03 1009.14 1009.51 1009.10 1008.80 1008.49 1008.87
1020.73 1020.73 1020.42 1020.34 1020.03 1020.01 1019.77 1019.38 1018.71 1017.86 1017.42 1017.41 1016.99 1017.11 1017.03 1017.10 1017.09 1017.06 1017.06 1016.54 1016.26 1015.69 1015.04 1014.75 1014.10 1013.57 1012.91 1011.65 1010.21 1009.62 1008.80 1007.63 1007.23 1006.99 1007.06 1007.26 1007.58 1007.80 1007.81 1007.60 1007.56 1007.69 1007.68
1021.96 1021.86 1021.73 1021.11 1021.00 1020.64 1020.39 1020.24 1019.58 1019.05 1018.39 1017.91 1017.79 1017.59 1017.27 1017.46 1017.40 1017.31 1017.56 1016.95 1016.83 1016.12 1015.54 1015.23 1014.76 1014.09 1013.50 1012.60 1011.75 1010.34 1009.50 1008.39 1007.90 1007.31 1006.16 1005.95 1006.19 1006.08 1006.32 1006.36 1006.33 1006.48 1006.56
1022.19 1021.89 1021.79 1021.54 1021.38 1021.17 1021.11 1020.54 1020.50 1020.01 1019.40 1018.88 1018.38 1018.57 1017.32 1018.01 1017.78 1017.95 1017.91 1017.55 1017.00 1016.46 1015.80 1015.40 1015.03 1014.34 1013.67 1013.03 1012.27 1011.35 1010.56 1009.59 1007.55 1007.19 1006.58 1005.55 1004.79 1004.76 1005.05 1004.91 1005.25 1005.65 1005.54
Thickness
5803 5793 5786 5787 5783 5780 5778 5776 5772 5768 5765 5762 5760 5761 5761 5762 5759 5756 5753 5750 5748 5744 5741 5738 5736 5734 5733 5731 5728 5726 5725 5725 5723 5723 5722 5719 5716 5712 5710 5708 5706 5704 5697
5802 5793 5782 5783 5782 5777 5773 5771 5769 5765 5762 5759 5757 5756 5757 5757 5756 5754 5751 5748 5745 5742 5739 5736 5733 5732 5730 5729 5726 5724 5723 5722 5721 5720 5718 5716 5713 5710 5707 5706 5705 5700 5694
5793 5787 5777 5775 5775 5775 5772 5767 5763 5762 5758 5756 5754 5754 5753 5752 5751 5749 5746 5744 5741 5738 5736 5734 5732 5730 5728 5726 5724 5722 5720 5719 5718 5717 5717 5722 5717 5708 5704 5703 5702 5697 5693
5788 5784 5780 5769 5767 5767 5767 5765 5762 5759 5757 5754 5751 5750 5749 5747 5745 5744 5742 5739 5736 5735 5733 5731 5729 5726 5725 5723 5721 5719 5718 5716 5715 5714 5719 5723 5717 5706 5703 5700 5697 5695 5692
5780 5778 5773 5766 5762 5761 5761 5759 5756 5755 5753 5752 5750 5747 5744 5742 5740 5739 5738 5736 5733 5730 5729 5727 5725 5723 5722 5721 5718 5715 5714 5712 5712 5712 5719 5717 5717 5705 5702 5699 5696 5693 5690
5774 5772 5764 5760 5757 5755 5755 5755 5753 5751 5749 5748 5746 5744 5740 5738 5736 5734 5732 5731 5730 5727 5725 5723 5721 5719 5718 5716 5714 5712 5710 5709 5709 5716 5715 5711 5712 5703 5700 5698 5697 5693 5689
5768 5767 5763 5756 5751 5749 5749 5750 5750 5749 5746 5744 5743 5742 5739 5736 5733 5731 5729 5727 5725 5724 5722 5720 5719 5716 5713 5712 5710 5709 5707 5707 5710 5714 5711 5708 5707 5700 5697 5696 5694 5691 5688
5761 5759 5757 5751 5746 5742 5742 5742 5742 5742 5740 5739 5739 5738 5737 5736 5734 5730 5727 5724 5723 5721 5720 5719 5717 5714 5711 5709 5707 5706 5704 5703 5707 5712 5709 5707 5703 5697 5695 5693 5692 5690 5687
5754 5752 5750 5749 5745 5741 5737 5735 5735 5735 5733 5731 5731 5730 5730 5731 5730 5728 5725 5722 5719 5717 5716 5715 5714 5712 5709 5707 5704 5702 5701 5701 5707 5710 5707 5706 5700 5696 5694 5691 5690 5688 5686
5748 5746 5744 5744 5744 5741 5740 5734 5730 5729 5729 5728 5725 5724 5722 5722 5722 5722 5721 5719 5717 5715 5713 5710 5708 5708 5706 5704 5702 5700 5698 5696 5700 5706 5704 5705 5698 5694 5692 5690 5689 5686 5684
5738 5740 5741 5740 5739 5737 5736 5735 5729 5727 5724 5723 5722 5719 5716 5717 5719 5718 5718 5717 5713 5711 5709 5707 5705 5703 5701 5700 5698 5697 5695 5699 5700 5702 5704 5700 5694 5691 5689 5687 5687 5685 5683
5728 5731 5734 5736 5736 5735 5733 5731 5728 5727 5727 5724 5723 5722 5717 5718 5716 5715 5714 5710 5707 5706 5704 5703 5701 5700 5697 5701 5699 5694 5695 5700 5700 5700 5701 5696 5689 5687 5686 5685 5684 5683 5681
5722 5725 5728 5729 5731 5730 5732 5730 5729 5727 5724 5722 5718 5717 5713 5711 5710 5708 5708 5706 5703 5702 5703 5700 5698 5695 5698 5701 5704 5702 5700 5699 5699 5698 5698 5693 5687 5683 5682 5683 5681 5680 5679
5712 5716 5716 5720 5724 5725 5726 5725 5725 5723 5718 5716 5713 5710 5708 5706 5707 5705 5702 5701 5704 5706 5705 5703 5699 5697 5697 5698 5699 5699 5696 5698 5699 5697 5697 5691 5685 5681 5680 5679 5681 5678 5677
5692 5695 5698 5701 5704 5709 5715 5716 5715 5715 5711 5708 5705 5703 5700 5699 5700 5698 5697 5695 5693 5694 5696 5696 5694 5692 5690 5691 5691 5693 5693 5692 5694 5695 5694 5689 5683 5681 5680 5678 5678 5677 5675
5672 5676 5677 5679 5683 5685 5689 5694 5699 5700 5699 5697 5694 5692 5691 5690 5690 5692 5691 5689 5690 5688 5687 5686 5686 5686 5682 5680 5683 5685 5687 5690 5687 5686 5687 5686 5680 5677 5678 5677 5676 5675 5675
5655 5655 5655 5659 5660 5665 5667 5669 5674 5678 5680 5680 5678 5674 5673 5676 5677 5680 5684 5684 5684 5685 5682 5681 5681 5678 5675 5675 5676 5677 5679 5681 5680 5684 5683 5683 5681 5675 5675 5675 5673 5674 5674
5637 5638 5638 5638 5642 5644 5647 5650 5653 5655 5658 5660 5661 5660 5659 5658 5659 5661 5663 5666 5668 5669 5670 5675 5676 5675 5673 5669 5671 5672 5674 5675 5678 5678 5675 5673 5678 5680 5677 5676 5674 5674 5674
5618 5617 5619 5621 5624 5626 5628 5630 5632 5634 5637 5639 5641 5642 5640 5642 5644 5646 5651 5651 5652 5654 5657 5661 5665 5667 5667 5667 5668 5668 5671 5677 5680 5674 5674 5668 5664 5667 5675 5677 5678 5675 5673
5603 5601 5600 5601 5604 5610 5612 5613 5615 5616 5617 5617 5617 5616 5618 5619 5623 5627 5635 5636 5635 5640 5649 5651 5652 5655 5659 5662 5663 5667 5668 5665 5666 5656 5653 5658 5659 5660 5662 5669 5675 5678 5672
5585 5585 5583 5584 5584 5587 5591 5591 5593 5592 5596 5596 5594 5591 5593 5596 5599 5604 5612 5618 5620 5623 5628 5634 5641 5647 5652 5655 5651 5658 5653 5659 5648 5649 5652 5653 5650 5654 5658 5661 5679 5675 5676
5567 5566 5565 5562 5562 5562 5563 5563 5567 5570 5574 5573 5571 5571 5570 5571 5575 5579 5582 5588 5592 5598 5602 5611 5622 5631 5639 5644 5642 5641 5647 5653 5660 5655 5660 5665 5655 5650 5654 5660 5674 5671 5674
5551 5550 5549 5544 5540 5538 5539 5543 5547 5552 5553 5553 5553 5552 5549 5550 5552 5554 5559 5564 5568 5576 5581 5585 5594 5602 5618 5631 5634 5635 5633 5641 5655 5658 5658 5658 5656 5657 5657 5665 5669 5673 5672
5530 5527 5526 5524 5524 5521 5520 5521 5525 5533 5533 5530 5534 5533 5532 5533 5534 5538 5540 5545 5549 5554 5561 5565 5573 5582 5589 5602 5618 5624 5632 5644 5644 5650 5656 5656 5657 5657 5662 5668 5670 5672 5673
5504 5502 5500 5503 5501 5502 5501 5498 5503 5506 5510 5513 5515 5516 5518 5518 5519 5524 5525 5531 5531 5537 5543 5545 5552 5561 5569 5580 5590 5606 5614 5626 5633 5638 5647 5655 5659 5664 5665 5667 5671 5672 5672
5493 5492 5488 5487 5485 5484 5482 5484 5482 5485 5489 5492 5496 5495 5506 5502 5506 5508 5510 5513 5517 5522 5528 5532 5535 5544 5552 5561 5572 5583 5592 5601 5623 5628 5635 5648 5657 5661 5662 5668 5667 5667 5671